User: anonymous   Login
Location: Corcelles
(46.1547°N, 4.7234°E)
Time: 16:53:16
(UTC+00:00)
Language:

Cosmos 1900 - Orbit

View from above orbital plane
View from above orbital plane
View from above satellite
View from above satellite

Ground track
Ground track

The orbit data is extracted from the following two-line orbital elements,

1 18665U 87101A   20271.52707091 -.00000074  00000-0  71182-5 0  9992
2 18665  66.0830  96.0344 0044340 299.5250  60.1438 14.54486971744651
Epoch (UTC): 27 September 2020 12:38:58
Eccentricity: 0.0044340
inclination: 66.0830°
perigee height: 679 km
apogee height: 742 km
right ascension of ascending node: 96.0344°
argument of perigee: 299.5250°
revolutions per day: 14.54486971
mean anomaly at epoch: 60.1438°
orbit number at epoch: 74465

The dashed part of the orbit path shows where the satellite is in the earth's shadow,  

DLR